Flag for U.S.A. Weather past 2 weeks in Springfield, Missouri, U.S.A.

Now
42 °F

More clouds than sun.


Feels Like: 35 °F
Forecast: 38 / 46 °F
Wind: 13 mph from Southeast

Location: Springfield Regional Airport

Current Time: Dec 21, 2014 at 1:25:26 PM

Latest Report: Dec 21, 2014 at 12:52 PM


Visibility: 10 mi

Pressure: 29.98 "Hg

Humidity: 82%

Dew point: 37 °F

Location of SpringfieldLocation

Historic Weather in Springfield — Graph

°F

Springfield temperature yesterday

Maximum temperature yesterday: 42 °F (at 1:52 PM)
Minimum temperature yesterday: 37 °F (at 12:52 AM)
Average temperature yesterday: 40 °F

Past Weeks' High & Low Weather Summary

 TemperatureHumidityPressure
High58 °F (Dec 14, 3:52 PM)97% (Dec 6, 11:59 AM)30.53 "Hg (Dec 6, 11:59 AM)
Low25 °F (Dec 17, 5:52 AM)53% (Dec 9, 1:52 PM)29.66 "Hg (Dec 15, 6:52 AM)
Average40 °F84%30.21 "Hg
* Reported Dec 6 11:59 AM — Dec 21 11:52 AM, Springfield, Weather by CustomWeather, © 2014

Note: Actual official high and low records may vary slightly from our data, if they occured in-between our weather recording intervals... More about our weather records

Advertising

Springfield weather history for previous 24 hours

 ConditionsComfort  
Time TempWeatherWind HumidityBarometerVisibility
11:52 AM
Dec 21
41 °FFog.16 mph89%30.03 "Hg4 mi
10:52 AM41 °FLow clouds.14 mph89%30.08 "Hg7 mi
9:52 AM41 °FFog.13 mph89%30.10 "Hg4 mi
8:59 AM40 °FFog.13 mph93%30.09 "Hg4 mi
7:52 AM41 °FOvercast.12 mph86%30.11 "Hg9 mi
6:52 AM41 °FOvercast.9 mph82%30.11 "Hg10 mi
5:52 AM41 °FOvercast.9 mph82%30.12 "Hg10 mi
4:52 AM41 °FOvercast.8 mph82%30.12 "Hg10 mi
3:52 AM41 °FOvercast.10 mph80%30.13 "Hg10 mi
2:52 AM41 °FOvercast.9 mph80%30.15 "Hg10 mi
1:52 AM41 °FOvercast.5 mph82%30.16 "Hg10 mi
12:52 AM40 °FOvercast.6 mph86%30.17 "Hg10 mi
11:52 PM
Dec 20
41 °FOvercast.10 mph86%30.19 "Hg10 mi
10:52 PM41 °FOvercast.8 mph89%30.20 "Hg10 mi
9:52 PM41 °FOvercast.6 mph86%30.20 "Hg10 mi
8:52 PM41 °FOvercast.6 mph86%30.19 "Hg10 mi
7:52 PM41 °FOvercast.7 mph82%30.20 "Hg10 mi
6:52 PM42 °FOvercast.8 mph79%30.19 "Hg10 mi
5:52 PM42 °FOvercast.6 mph79%30.19 "Hg10 mi
4:52 PM42 °FOvercast.6 mph79%30.19 "Hg10 mi
3:52 PM42 °FOvercast.7 mph79%30.18 "Hg10 mi
2:52 PM42 °FOvercast.8 mph79%30.19 "Hg10 mi
1:52 PM42 °FOvercast.9 mph79%30.19 "Hg9 mi
Weather by CustomWeather, © 2014

See weather overviewHow to use our weather pages